Find Starlink 5769

NORAD ID: 55585 Int'l Des: 2023-020 Owner: SPXS Country: US Constellation: starlink operational
LEOCIRCULAR

リアルタイム位置

3D地球を読み込み中...

Starlink 5769について

説明を読み込み中...

次回通過

Passes for default location (London). Set your location on the main map for personalized predictions.

高度履歴

Loading altitude history...

軌道要素

1 55585U 23020S 26126.73889104 .00000153 00000-0 15082-4 0 9991
2 55585 43.0038 26.7101 0000465 204.2106 155.8723 15.27573780177916
Epoch: May 6, 2026 • Age: 10 hours

現在のステータス

高度 484.0 km
速度 7.62 km/s
衛星直下点 -8.57°S, 71.29°W
打ち上げ日 Feb 12, 2023
運用期間 3.2 years
タイプ internet

技術仕様

分類 Payload
質量 305.00 kg
乾燥質量 290.00 kg
総質量 305.00 kg
長さ 0.20 m
直径 2.80 m
スパン 9.00 m
形状 Box + pan
製造者 SPXS
バスタイプ Starlink
フェーズステータス In Orbit
所有者/国 SPXS/US

Most Searched